This is the latest recevied weather packets stored in our database for station/object KD5FHA. If no packets are shown the sender has not sent any weather packets the latest 10 day(s).
| Time | Temp. | Humidity | Pressure | Rain* | Wind** | Luminosity | Snow |
|---|---|---|---|---|---|---|---|
| 1777761987 | 25.56° C | 33% | 1019.9 hPa | 0 mm | - | 408 W/m² | - |
| 1777761684 | 26.67° C | 33% | 1019.9 hPa | 0 mm | - | 421 W/m² | - |
| 1777761381 | 25.56° C | 32% | 1020 hPa | 0 mm | - | 442 W/m² | - |
| 1777761079 | 26.11° C | 32% | 1020.1 hPa | 0 mm | - | 459 W/m² | - |
| 1777760777 | 26.11° C | 34% | 1020.1 hPa | 0 mm | - | 482 W/m² | - |
| 1777760472 | 26.67° C | 34% | 1020 hPa | 0 mm | - | 503 W/m² | - |
| 1777760168 | 26.11° C | 34% | 1019.8 hPa | 0 mm | - | 540 W/m² | - |
| 1777759866 | 26.67° C | 34% | 1019.9 hPa | 0 mm | - | 568 W/m² | - |
| 1777759561 | 26.67° C | 31% | 1020 hPa | 0 mm | - | 589 W/m² | - |
| 1777759258 | 26.67° C | 31% | 1020.1 hPa | 0 mm | - | 619 W/m² | - |
| 1777758955 | 27.22° C | 33% | 1020.1 hPa | 0 mm | - | 651 W/m² | - |
| 1777758652 | 27.22° C | 32% | 1020.1 hPa | 0 mm | - | 658 W/m² | - |
| 1777758349 | 27.78° C | 34% | 1020.2 hPa | 0 mm | - | 667 W/m² | - |
| 1777758041 | 27.22° C | 35% | 1020.2 hPa | 0 mm | - | 661 W/m² | - |
| 1777757738 | 27.78° C | 32% | 1020.2 hPa | 0 mm | - | 657 W/m² | - |
| 1777757436 | 26.67° C | 33% | 1020.3 hPa | 0 mm | - | 668 W/m² | - |
| 1777757135 | 26.67° C | 33% | 1020.4 hPa | 0 mm | - | 698 W/m² | - |
| 1777756832 | 26.67° C | 34% | 1020.3 hPa | 0 mm | - | 711 W/m² | - |
| 1777756527 | 26.67° C | 32% | 1020.4 hPa | 0 mm | - | 712 W/m² | - |
| 1777756225 | 26.11° C | 34% | 1020.5 hPa | 0 mm | - | 748 W/m² | - |
| 1777755921 | 26.11° C | 34% | 1020.6 hPa | 0 mm | - | 784 W/m² | - |
| 1777755619 | 27.22° C | 33% | 1020.5 hPa | 0 mm | - | 787 W/m² | - |
| 1777755315 | 25.56° C | 34% | 1020.6 hPa | 0 mm | - | 801 W/m² | - |
| 1777755012 | 26.67° C | 33% | 1020.7 hPa | 0 mm | - | 778 W/m² | - |
| 1777754709 | 25.56° C | 35% | 1020.7 hPa | 0 mm | - | 798 W/m² | - |
* Rain latest hour (hover to see other rain measurements)
** Current wind speed in m/s (hover to see current wind gust speed)